Location: Fort Worth, Tx
(32.7431°N, 97.3695°W)
Time: 08:26:55
(UTC-04:00)

Vanguard 1 Rocket - Pass Details

Date: 28 February 2024
Orbit: 652 x 4219 km, 34.3° (Epoch: 22 April)

Event Time Altitude Azimuth Distance (km) Brightness Sun altitude
Rises 07:00:08 0° 229° (SW) 8,434 11.9 -13.1°
Reaches altitude 10° 07:06:11 10° 226° (SW) 7,411 11.6 -11.9°
Maximum altitude 07:30:45 62° 153° (SSE) 3,596 10.6 -6.7°
Drops below altitude 10° 07:45:25 10° 77° (ENE) 4,758 12.5 -3.6°
Sets 07:48:19 0° 74° (ENE) 5,398 12.8 -3.0°
